| time (UTC) | temp C | wind direction | speed KPH | gust KPH | rain 1hr cm | rain 24hr cm | rain mn cm | humidity % | barometer mb |
| 20260510015837 | 10 | 207 | 0.0 | 0.0 | 0.00 | 0.48 | 0.48 | 98 | 1012.3 |
| 20260510015333 | 11 | 207 | 0.0 | 0.0 | 0.00 | 0.48 | 0.48 | 97 | 1012.2 |
| 20260510014828 | 11 | 207 | 0.0 | 0.0 | 0.00 | 0.48 | 0.48 | 97 | 1012.4 |
| 20260510014326 | 11 | 207 | 0.0 | 0.0 | 0.00 | 0.48 | 0.48 | 97 | 1012.3 |
| 20260510013821 | 11 | 207 | 0.0 | 0.0 | 0.00 | 0.48 | 0.48 | 96 | 1012.1 |
| 20260510013317 | 11 | 207 | 0.0 | 0.0 | 0.00 | 0.48 | 0.48 | 96 | 1012.3 |
| 20260510012812 | 11 | 207 | 0.0 | 0.0 | 0.00 | 0.48 | 0.48 | 96 | 1012.1 |
| 20260510012312 | 11 | 207 | 0.0 | 0.0 | 0.00 | 0.48 | 0.48 | 95 | 1012.2 |
| 20260510011807 | 11 | 207 | 0.0 | 0.0 | 0.00 | 0.48 | 0.48 | 95 | 1011.9 |
| 20260510011303 | 12 | 207 | 0.0 | 0.0 | 0.00 | 0.48 | 0.48 | 94 | 1011.8 |
| 20260510010800 | 12 | 207 | 0.0 | 0.0 | 0.00 | 0.48 | 0.48 | 94 | 1012.1 |
| 20260510010256 | 12 | 207 | 0.0 | 0.0 | 0.00 | 0.48 | 0.48 | 93 | 1011.7 |
| 20260510005753 | 12 | 207 | 0.0 | 0.0 | 0.00 | 0.48 | 0.48 | 92 | 1011.7 |
| 20260510005249 | 12 | 207 | 0.0 | 0.0 | 0.00 | 0.48 | 0.48 | 92 | 1011.7 |
| 20260510004748 | 12 | 207 | 0.0 | 0.0 | 0.00 | 0.48 | 0.48 | 91 | 1011.7 |
| 20260510004245 | 12 | 207 | 0.0 | 0.0 | 0.00 | 0.48 | 0.48 | 90 | 1012.1 |
| 20260510003742 | 13 | 207 | 0.0 | 0.0 | 0.00 | 0.48 | 0.48 | 88 | 1011.9 |
| 20260510003239 | 13 | 207 | 0.0 | 0.0 | 0.00 | 0.48 | 0.48 | 88 | 1011.7 |
| 20260510002737 | 13 | 207 | 0.0 | 0.0 | 0.00 | 0.48 | 0.48 | 86 | 1011.6 |
| 20260510002235 | 13 | 207 | 0.0 | 0.0 | 0.00 | 0.48 | 0.48 | 85 | 1011.6 |
| 20260510001731 | 14 | 207 | 0.0 | 0.0 | 0.00 | 0.48 | 0.48 | 84 | 1011.6 |
| 20260510001230 | 14 | 206 | 0.0 | 0.0 | 0.00 | 0.48 | 0.48 | 83 | 1011.5 |
| 20260510000726 | 15 | 206 | 0.0 | 0.0 | 0.00 | 0.48 | 0.48 | 82 | 1011.2 |
| 20260510000226 | 15 | 206 | 0.0 | 0.0 | 0.00 | 0.48 | 0.48 | 80 | 1011.4 |
| 20260509235720 | 15 | 206 | 0.0 | 0.0 | 0.00 | 0.48 | 0.48 | 79 | 1011.6 |
| 20260509235216 | 16 | 206 | 0.0 | 0.0 | 0.00 | 0.48 | 0.48 | 78 | 1011.4 |
| 20260509234712 | 16 | 226 | 0.0 | 0.0 | 0.00 | 0.48 | 0.48 | 77 | 1011.5 |
| 20260509234209 | 16 | 229 | 0.0 | 1.6 | 0.00 | 0.48 | 0.48 | 76 | 1011.2 |
| 20260509233708 | 16 | 237 | 0.0 | 0.0 | 0.00 | 0.48 | 0.48 | 76 | 1011.4 |
| 20260509233205 | 16 | 232 | 0.0 | 0.0 | 0.00 | 0.48 | 0.48 | 76 | 1011.2 |
| 20260509232701 | 16 | 257 | 1.6 | 4.8 | 0.00 | 0.48 | 0.48 | 76 | 1011.1 |
| 20260509232158 | 16 | 240 | 1.6 | 3.2 | 0.00 | 0.48 | 0.48 | 76 | 1011.2 |
| 20260509231654 | 16 | 229 | 0.0 | 8.0 | 0.00 | 0.48 | 0.48 | 75 | 1011.2 |
| 20260509231152 | 16 | 246 | 4.8 | 4.8 | 0.00 | 0.48 | 0.48 | 74 | 1011.3 |
| 20260509230649 | 17 | 235 | 3.2 | 4.8 | 0.00 | 0.48 | 0.48 | 73 | 1011.2 |
| 20260509230146 | 17 | 249 | 1.6 | 4.8 | 0.00 | 0.48 | 0.48 | 73 | 1011.2 |
| 20260509225641 | 17 | 243 | 1.6 | 3.2 | 0.00 | 0.48 | 0.48 | 76 | 1011.4 |
| 20260509225137 | 17 | 217 | 0.0 | 4.8 | 0.00 | 0.48 | 0.48 | 74 | 1011.2 |
| 20260509224632 | 17 | 216 | 4.8 | 8.0 | 0.00 | 0.48 | 0.48 | 73 | 1011.2 |
| 20260509224129 | 17 | 193 | 3.2 | 3.2 | 0.00 | 0.48 | 0.48 | 74 | 1011.2 |
| 20260509223627 | 17 | 238 | 3.2 | 4.8 | 0.00 | 0.48 | 0.48 | 74 | 1011.2 |
| 20260509223124 | 17 | 244 | 0.0 | 4.8 | 0.00 | 0.48 | 0.48 | 73 | 1011.3 |
| 20260509222620 | 17 | 250 | 4.8 | 4.8 | 0.00 | 0.48 | 0.48 | 73 | 1011.3 |
| 20260509222116 | 17 | 244 | 3.2 | 3.2 | 0.00 | 0.48 | 0.48 | 74 | 1011.2 |
| 20260509221612 | 17 | 247 | 3.2 | 3.2 | 0.00 | 0.48 | 0.48 | 73 | 1011.0 |
| 20260509221108 | 17 | 153 | 6.4 | 8.0 | 0.00 | 0.48 | 0.48 | 72 | 1011.2 |
| 20260509220604 | 17 | 251 | 0.0 | 1.6 | 0.00 | 0.48 | 0.48 | 75 | 1011.2 |
| 20260509215556 | 16 | 235 | 4.8 | 8.0 | 0.00 | 0.48 | 0.48 | 76 | 1011.6 |
| 20260509215054 | 17 | 240 | 3.2 | 4.8 | 0.00 | 0.48 | 0.48 | 74 | 1011.5 |
| 20260509214551 | 16 | 237 | 4.8 | 4.8 | 0.00 | 0.48 | 0.48 | 76 | 1011.4 |
| 20260509214048 | 16 | 193 | 3.2 | 4.8 | 0.00 | 0.48 | 0.48 | 75 | 1011.5 |
| 20260509213544 | 17 | 224 | 0.0 | 4.8 | 0.00 | 0.48 | 0.48 | 74 | 1011.5 |
| 20260509213041 | 16 | 224 | 1.6 | 3.2 | 0.00 | 0.48 | 0.48 | 75 | 1011.6 |
| 20260509212537 | 17 | 131 | 4.8 | 4.8 | 0.00 | 0.48 | 0.48 | 74 | 1011.5 |
| 20260509212035 | 16 | 278 | 1.6 | 4.8 | 0.00 | 0.48 | 0.48 | 76 | 1011.7 |
| 20260509211530 | 16 | 249 | 0.0 | 1.6 | 0.00 | 0.48 | 0.48 | 77 | 1011.8 |
| 20260509211027 | 15 | 281 | 1.6 | 1.6 | 0.00 | 0.48 | 0.48 | 79 | 1012.2 |
| 20260509210524 | 15 | 278 | 0.0 | 1.6 | 0.00 | 0.48 | 0.48 | 80 | 1012.2 |
| 20260509210020 | 15 | 315 | 3.2 | 3.2 | 0.00 | 0.48 | 0.48 | 80 | 1012.2 |
| 20260509205515 | 15 | 291 | 3.2 | 3.2 | 0.00 | 0.48 | 0.48 | 80 | 1011.9 |
| 20260509205010 | 15 | 297 | 4.8 | 8.0 | 0.00 | 0.48 | 0.48 | 80 | 1012.3 |
| 20260509204507 | 15 | 277 | 1.6 | 3.2 | 0.00 | 0.48 | 0.48 | 80 | 1012.2 |
| 20260509204003 | 15 | 279 | 1.6 | 3.2 | 0.00 | 0.48 | 0.48 | 79 | 1011.9 |
| 20260509203459 | 16 | 304 | 1.6 | 1.6 | 0.00 | 0.48 | 0.48 | 78 | 1012.1 |
| 20260509202957 | 15 | 262 | 0.0 | 1.6 | 0.00 | 0.48 | 0.48 | 78 | 1011.8 |
| 20260509202453 | 15 | 240 | 0.0 | 1.6 | 0.00 | 0.48 | 0.48 | 79 | 1011.7 |
| 20260509201948 | 15 | 193 | 1.6 | 3.2 | 0.00 | 0.48 | 0.48 | 79 | 1011.8 |
| 20260509201443 | 15 | 291 | 0.0 | 0.0 | 0.00 | 0.48 | 0.48 | 80 | 1011.9 |
| 20260509200940 | 15 | 292 | 0.0 | 0.0 | 0.00 | 0.48 | 0.48 | 80 | 1011.9 |
| 20260509200440 | 15 | 287 | 0.0 | 0.0 | 0.00 | 0.48 | 0.48 | 80 | 1012.2 |
| 20260509195937 | 15 | 288 | 0.0 | 1.6 | 0.00 | 0.48 | 0.48 | 80 | 1012.3 |
| 20260509195433 | 15 | 278 | 1.6 | 3.2 | 0.00 | 0.48 | 0.48 | 80 | 1012.3 |
| 20260509194932 | 15 | 276 | 0.0 | 1.6 | 0.00 | 0.48 | 0.48 | 80 | 1012.2 |
| 20260509194428 | 15 | 254 | 3.2 | 3.2 | 0.00 | 0.48 | 0.48 | 79 | 1012.5 |
| 20260509193926 | 16 | 299 | 3.2 | 9.7 | 0.00 | 0.48 | 0.48 | 78 | 1012.4 |
| 20260509193425 | 16 | 162 | 1.6 | 3.2 | 0.00 | 0.48 | 0.48 | 77 | 1012.4 |
| 20260509192921 | 16 | 301 | 1.6 | 8.0 | 0.00 | 0.48 | 0.48 | 78 | 1012.5 |
| 20260509192418 | 16 | 257 | 3.2 | 4.8 | 0.00 | 0.48 | 0.48 | 80 | 1012.6 |
| 20260509191913 | 16 | 248 | 4.8 | 8.0 | 0.00 | 0.48 | 0.48 | 78 | 1012.5 |
| 20260509191409 | 15 | 174 | 3.2 | 3.2 | 0.00 | 0.48 | 0.48 | 82 | 1012.7 |
| 20260509190905 | 15 | 162 | 0.0 | 1.6 | 0.00 | 0.48 | 0.48 | 84 | 1013.0 |
| 20260509190402 | 15 | 220 | 3.2 | 4.8 | 0.00 | 0.48 | 0.48 | 84 | 1013.0 |
| 20260509185900 | 15 | 282 | 3.2 | 11.3 | 0.00 | 0.48 | 0.48 | 82 | 1013.1 |
| 20260509185356 | 15 | 248 | 11.3 | 12.9 | 0.00 | 0.48 | 0.48 | 83 | 1013.1 |
| 20260509184853 | 15 | 231 | 3.2 | 11.3 | 0.00 | 0.48 | 0.48 | 85 | 1013.0 |
| 20260509184350 | 15 | 232 | 3.2 | 4.8 | 0.00 | 0.48 | 0.48 | 86 | 1013.3 |
| 20260509183847 | 16 | 221 | 1.6 | 11.3 | 0.00 | 0.48 | 0.48 | 85 | 1013.1 |
| 20260509183342 | 14 | 246 | 1.6 | 4.8 | 0.00 | 0.48 | 0.48 | 91 | 1012.9 |
| 20260509182838 | 14 | 220 | 3.2 | 8.0 | 0.00 | 0.48 | 0.48 | 92 | 1013.2 |
| 20260509182336 | 14 | 213 | 0.0 | 4.8 | 0.00 | 0.48 | 0.48 | 94 | 1013.1 |
| 20260509181833 | 14 | 223 | 4.8 | 4.8 | 0.00 | 0.48 | 0.48 | 92 | 1013.0 |
| 20260509181330 | 13 | 107 | 6.4 | 8.0 | 0.00 | 0.48 | 0.48 | 93 | 1013.1 |
| 20260509180827 | 12 | 224 | 1.6 | 4.8 | 0.00 | 0.48 | 0.48 | 94 | 1013.4 |
| 20260509180323 | 13 | 228 | 3.2 | 3.2 | 0.00 | 0.48 | 0.48 | 94 | 1013.4 |
| 20260509175820 | 12 | 236 | 0.0 | 1.6 | 0.00 | 0.48 | 0.48 | 95 | 1013.3 |
| 20260509175316 | 12 | 245 | 0.0 | 3.2 | 0.00 | 0.48 | 0.48 | 95 | 1013.7 |
| 20260509174812 | 12 | 249 | 3.2 | 4.8 | 0.00 | 0.48 | 0.48 | 94 | 1013.5 |
| 20260509174307 | 12 | 238 | 3.2 | 4.8 | 0.00 | 0.48 | 0.48 | 94 | 1013.4 |
| 20260509173803 | 12 | 243 | 0.0 | 0.0 | 0.00 | 0.48 | 0.48 | 94 | 1013.3 |
| 20260509173254 | 12 | 230 | 3.2 | 3.2 | 0.00 | 0.48 | 0.48 | 94 | 1013.5 |
| 20260509172750 | 12 | 236 | 0.0 | 1.6 | 0.00 | 0.48 | 0.48 | 94 | 1013.5 |
| 20260509172247 | 12 | 278 | 1.6 | 1.6 | 0.00 | 0.48 | 0.48 | 94 | 1013.5 |
| 20260509171742 | 12 | 271 | 3.2 | 8.0 | 0.00 | 0.48 | 0.48 | 95 | 1013.5 |
| 20260509171239 | 12 | 242 | 3.2 | 4.8 | 0.00 | 0.48 | 0.48 | 95 | 1013.6 |
| 20260509170736 | 12 | 234 | 4.8 | 8.0 | 0.13 | 0.48 | 0.48 | 95 | 1013.8 |
| 20260509170232 | 12 | 244 | 4.8 | 8.0 | 0.13 | 0.48 | 0.48 | 95 | 1013.7 |
| 20260509165730 | 12 | 209 | 0.0 | 1.6 | 0.00 | 0.46 | 0.46 | 95 | 1013.7 |
| 20260509165225 | 12 | 226 | 1.6 | 1.6 | 0.00 | 0.46 | 0.46 | 95 | 1013.5 |
| 20260509164722 | 11 | 181 | 3.2 | 3.2 | 0.00 | 0.46 | 0.46 | 95 | 1013.7 |
| 20260509164217 | 11 | 231 | 1.6 | 3.2 | 0.00 | 0.46 | 0.46 | 95 | 1013.5 |
| 20260509163715 | 11 | 230 | 0.0 | 3.2 | 0.00 | 0.46 | 0.46 | 94 | 1013.6 |
| 20260509163212 | 11 | 170 | 0.0 | 1.6 | 0.00 | 0.46 | 0.46 | 95 | 1013.7 |
| 20260509162709 | 11 | 185 | 0.0 | 1.6 | 0.00 | 0.46 | 0.46 | 94 | 1013.5 |
| 20260509162204 | 11 | 237 | 0.0 | 0.0 | 0.18 | 0.46 | 0.46 | 95 | 1013.4 |
| 20260509161700 | 11 | 206 | 0.0 | 1.6 | 0.18 | 0.46 | 0.46 | 95 | 1013.4 |
| 20260509161156 | 11 | 311 | 0.0 | 1.6 | 0.13 | 0.43 | 0.43 | 95 | 1013.5 |
| 20260509160652 | 11 | 291 | 0.0 | 1.6 | 0.30 | 0.43 | 0.43 | 95 | 1013.3 |
| 20260509160147 | 11 | 280 | 0.0 | 0.0 | 0.30 | 0.41 | 0.41 | 95 | 1013.6 |
| 20260509155644 | 11 | 296 | 1.6 | 3.2 | 0.43 | 0.38 | 0.38 | 94 | 1013.8 |
| 20260509155140 | 11 | 310 | 0.0 | 0.0 | 0.48 | 0.36 | 0.36 | 94 | 1014.0 |
| 20260509154636 | 11 | 289 | 0.0 | 0.0 | 0.61 | 0.30 | 0.30 | 94 | 1014.3 |
| 20260509154133 | 11 | 284 | 0.0 | 0.0 | 0.48 | 0.25 | 0.25 | 93 | 1014.4 |
| 20260509153630 | 11 | 284 | 3.2 | 3.2 | 0.48 | 0.20 | 0.20 | 93 | 1014.5 |
| 20260509153127 | 12 | 275 | 1.6 | 3.2 | 0.30 | 0.15 | 0.15 | 92 | 1014.6 |
| 20260509152623 | 12 | 243 | 3.2 | 3.2 | 0.18 | 0.13 | 0.13 | 91 | 1014.6 |
| 20260509152120 | 12 | 247 | 0.0 | 3.2 | 0.00 | 0.10 | 0.10 | 90 | 1014.3 |
| 20260509151616 | 12 | 230 | 3.2 | 3.2 | 0.00 | 0.10 | 0.10 | 91 | 1014.3 |
| 20260509151114 | 12 | 227 | 3.2 | 4.8 | 0.13 | 0.10 | 0.10 | 91 | 1014.2 |
| 20260509150612 | 12 | 245 | 1.6 | 3.2 | 0.00 | 0.08 | 0.08 | 90 | 1014.4 |
| 20260509150110 | 12 | 236 | 1.6 | 3.2 | 0.18 | 0.08 | 0.08 | 90 | 1014.4 |
| 20260509145605 | 12 | 249 | 4.8 | 4.8 | 0.18 | 0.08 | 0.08 | 89 | 1014.4 |
| 20260509145101 | 12 | 238 | 3.2 | 4.8 | 0.13 | 0.05 | 0.05 | 87 | 1014.4 |
| 20260509144558 | 12 | 225 | 3.2 | 4.8 | 0.18 | 0.03 | 0.03 | 86 | 1014.5 |
| 20260509144055 | 12 | 247 | 1.6 | 3.2 | 0.18 | 0.03 | 0.03 | 84 | 1014.3 |
| 20260509143552 | 13 | 246 | 3.2 | 3.2 | 0.00 | 0.00 | 0.00 | 82 | 1014.1 |
| 20260509143050 | 13 | 236 | 4.8 | 4.8 | 0.00 | 0.00 | 0.00 | 80 | 1014.0 |
| 20260509142545 | 13 | 258 | 6.4 | 9.7 | 0.00 | 0.00 | 0.00 | 79 | 1014.1 |
| 20260509142041 | 13 | 268 | 0.0 | 1.6 | 0.00 | 0.00 | 0.00 | 80 | 1013.9 |
| 20260509141537 | 13 | 250 | 1.6 | 8.0 | 0.00 | 0.00 | 0.00 | 80 | 1013.9 |
| 20260509141034 | 13 | 229 | 4.8 | 4.8 | 0.00 | 0.00 | 0.00 | 80 | 1013.9 |
| 20260509140531 | 13 | 254 | 1.6 | 3.2 | 0.00 | 0.00 | 0.00 | 83 | 1013.8 |
| 20260509140029 | 13 | 245 | 3.2 | 3.2 | 0.00 | 0.00 | 0.00 | 84 | 1013.9 |
| 20260509135526 | 13 | 241 | 1.6 | 3.2 | 0.00 | 0.00 | 0.00 | 83 | 1013.8 |
| 20260509135023 | 13 | 233 | 3.2 | 3.2 | 0.00 | 0.00 | 0.00 | 82 | 1014.0 |
| 20260509134520 | 12 | 265 | 3.2 | 4.8 | 0.00 | 0.00 | 0.00 | 80 | 1013.8 |
| 20260509134018 | 12 | 257 | 0.0 | 0.0 | 0.00 | 0.00 | 0.00 | 80 | 1013.5 |
| 20260509133514 | 13 | 259 | 1.6 | 3.2 | 0.00 | 0.00 | 0.00 | 81 | 1013.7 |
| 20260509133013 | 12 | 243 | 3.2 | 3.2 | 0.00 | 0.00 | 0.00 | 81 | 1013.8 |
| 20260509132511 | 12 | 216 | 1.6 | 3.2 | 0.00 | 0.00 | 0.00 | 82 | 1013.5 |
| 20260509132008 | 12 | 258 | 0.0 | 0.0 | 0.00 | 0.00 | 0.00 | 85 | 1013.6 |
| 20260509131504 | 12 | 228 | 0.0 | 3.2 | 0.00 | 0.00 | 0.00 | 87 | 1013.5 |
| 20260509131001 | 12 | 248 | 0.0 | 1.6 | 0.00 | 0.00 | 0.00 | 86 | 1013.5 |
| 20260509130456 | 12 | 262 | 0.0 | 0.0 | 0.00 | 0.00 | 0.00 | 85 | 1013.4 |
| 20260509125954 | 12 | 273 | 0.0 | 0.0 | 0.00 | 0.00 | 0.00 | 85 | 1013.6 |
| 20260509125450 | 12 | 272 | 0.0 | 0.0 | 0.00 | 0.00 | 0.00 | 84 | 1013.4 |
| 20260509124946 | 12 | 277 | 1.6 | 3.2 | 0.00 | 0.00 | 0.00 | 84 | 1013.8 |
| 20260509124443 | 12 | 280 | 0.0 | 0.0 | 0.00 | 0.00 | 0.00 | 84 | 1013.5 |
| 20260509123940 | 12 | 279 | 0.0 | 0.0 | 0.00 | 0.00 | 0.00 | 85 | 1013.7 |
| 20260509123438 | 11 | 280 | 0.0 | 0.0 | 0.00 | 0.00 | 0.00 | 85 | 1013.5 |
| 20260509122934 | 11 | 275 | 1.6 | 1.6 | 0.00 | 0.00 | 0.00 | 86 | 1013.7 |
| 20260509122431 | 11 | 248 | 3.2 | 3.2 | 0.00 | 0.00 | 0.00 | 86 | 1013.6 |
| 20260509121927 | 11 | 235 | 4.8 | 4.8 | 0.00 | 0.00 | 0.00 | 86 | 1013.8 |
| 20260509121424 | 11 | 264 | 0.0 | 3.2 | 0.00 | 0.00 | 0.00 | 86 | 1013.1 |
| 20260509120923 | 11 | 296 | 1.6 | 3.2 | 0.00 | 0.00 | 0.00 | 86 | 1013.3 |
| 20260509120420 | 11 | 287 | 0.0 | 0.0 | 0.00 | 0.00 | 0.00 | 86 | 1013.4 |
| 20260509115918 | 11 | 278 | 1.6 | 4.8 | 0.00 | 0.00 | 0.00 | 86 | 1013.7 |
| 20260509115415 | 11 | 229 | 1.6 | 4.8 | 0.00 | 0.00 | 0.00 | 86 | 1013.3 |
| 20260509114912 | 11 | 221 | 1.6 | 3.2 | 0.00 | 0.00 | 0.00 | 87 | 1013.3 |
| 20260509114411 | 11 | 224 | 0.0 | 0.0 | 0.00 | 0.00 | 0.00 | 87 | 1013.0 |
| 20260509113910 | 11 | 225 | 0.0 | 0.0 | 0.00 | 0.00 | 0.00 | 87 | 1013.4 |
| 20260509113407 | 11 | 225 | 0.0 | 0.0 | 0.00 | 0.00 | 0.00 | 87 | 1013.1 |
| 20260509112904 | 11 | 225 | 0.0 | 0.0 | 0.00 | 0.00 | 0.00 | 87 | 1013.2 |
| 20260509112401 | 11 | 226 | 0.0 | 0.0 | 0.00 | 0.00 | 0.00 | 87 | 1013.0 |
| 20260509111858 | 10 | 233 | 0.0 | 0.0 | 0.00 | 0.00 | 0.00 | 87 | 1013.2 |
| 20260509111354 | 10 | 237 | 0.0 | 0.0 | 0.00 | 0.00 | 0.00 | 88 | 1013.1 |
| 20260509110853 | 10 | 237 | 0.0 | 0.0 | 0.00 | 0.00 | 0.00 | 88 | 1013.3 |
| 20260509110348 | 10 | 237 | 0.0 | 0.0 | 0.00 | 0.00 | 0.00 | 88 | 1013.0 |
| 20260509105847 | 10 | 263 | 0.0 | 0.0 | 0.00 | 0.00 | 0.00 | 88 | 1013.1 |
| 20260509105345 | 10 | 263 | 0.0 | 0.0 | 0.00 | 0.00 | 0.00 | 88 | 1013.2 |
| 20260509104841 | 10 | 264 | 0.0 | 0.0 | 0.00 | 0.00 | 0.00 | 87 | 1013.0 |
| 20260509104337 | 10 | 262 | 0.0 | 1.6 | 0.00 | 0.00 | 0.00 | 88 | 1013.1 |
| 20260509103835 | 10 | 263 | 0.0 | 0.0 | 0.00 | 0.00 | 0.00 | 88 | 1013.1 |
| 20260509103332 | 10 | 285 | 1.6 | 1.6 | 0.00 | 0.00 | 0.00 | 87 | 1013.0 |
| 20260509102831 | 10 | 270 | 0.0 | 0.0 | 0.00 | 0.00 | 0.00 | 87 | 1013.0 |
| 20260509102328 | 10 | 271 | 0.0 | 0.0 | 0.00 | 0.00 | 0.00 | 87 | 1012.7 |
| 20260509101824 | 10 | 273 | 0.0 | 0.0 | 0.00 | 0.00 | 0.00 | 86 | 1012.8 |
| 20260509101320 | 10 | 251 | 0.0 | 0.0 | 0.00 | 0.00 | 0.00 | 86 | 1013.1 |
| 20260509100818 | 10 | 252 | 1.6 | 1.6 | 0.00 | 0.00 | 0.00 | 86 | 1012.8 |
| 20260509100315 | 10 | 144 | 1.6 | 1.6 | 0.00 | 0.00 | 0.00 | 86 | 1012.6 |
| 20260509095812 | 10 | 287 | 1.6 | 3.2 | 0.00 | 0.00 | 0.00 | 85 | 1012.6 |
| 20260509095309 | 10 | 231 | 0.0 | 4.8 | 0.00 | 0.00 | 0.00 | 85 | 1012.5 |
| 20260509094806 | 10 | 160 | 3.2 | 3.2 | 0.00 | 0.00 | 0.00 | 84 | 1012.5 |
| 20260509094302 | 10 | 47 | 1.6 | 3.2 | 0.00 | 0.00 | 0.00 | 84 | 1012.9 |
| 20260509093800 | 10 | 265 | 0.0 | 0.0 | 0.00 | 0.00 | 0.00 | 84 | 1013.1 |
| 20260509093257 | 10 | 265 | 0.0 | 0.0 | 0.00 | 0.00 | 0.00 | 84 | 1013.0 |
| 20260509092756 | 10 | 234 | 0.0 | 0.0 | 0.00 | 0.00 | 0.00 | 83 | 1013.0 |
| 20260509092254 | 10 | 234 | 0.0 | 1.6 | 0.00 | 0.00 | 0.00 | 83 | 1012.7 |
| 20260509091751 | 10 | 232 | 0.0 | 0.0 | 0.00 | 0.00 | 0.00 | 82 | 1012.8 |
| 20260509091248 | 10 | 236 | 0.0 | 1.6 | 0.00 | 0.00 | 0.00 | 82 | 1012.9 |
| 20260509090745 | 10 | 204 | 1.6 | 3.2 | 0.00 | 0.00 | 0.00 | 82 | 1012.8 |
| 20260509090242 | 10 | 213 | 1.6 | 1.6 | 0.00 | 0.00 | 0.00 | 81 | 1013.0 |
| 20260509085740 | 10 | 216 | 1.6 | 4.8 | 0.00 | 0.00 | 0.00 | 81 | 1013.0 |
| 20260509085237 | 10 | 221 | 0.0 | 3.2 | 0.00 | 0.00 | 0.00 | 82 | 1013.1 |
| 20260509084733 | 10 | 234 | 0.0 | 0.0 | 0.00 | 0.00 | 0.00 | 81 | 1013.2 |
| 20260509084230 | 10 | 237 | 0.0 | 3.2 | 0.00 | 0.00 | 0.00 | 81 | 1013.2 |
| 20260509083728 | 10 | 154 | 1.6 | 3.2 | 0.00 | 0.00 | 0.00 | 82 | 1013.2 |
| 20260509083225 | 10 | 106 | 3.2 | 4.8 | 0.00 | 0.00 | 0.00 | 82 | 1013.2 |
| 20260509082721 | 10 | 222 | 0.0 | 1.6 | 0.00 | 0.00 | 0.00 | 82 | 1013.2 |
| 20260509082218 | 10 | 203 | 1.6 | 3.2 | 0.00 | 0.00 | 0.00 | 82 | 1013.3 |
| 20260509081714 | 10 | 220 | 0.0 | 0.0 | 0.00 | 0.00 | 0.00 | 82 | 1013.3 |
| 20260509081212 | 10 | 220 | 0.0 | 1.6 | 0.00 | 0.00 | 0.00 | 83 | 1013.6 |
| 20260509080710 | 10 | 220 | 0.0 | 1.6 | 0.00 | 0.00 | 0.00 | 83 | 1013.4 |
| 20260509080208 | 10 | 212 | 1.6 | 1.6 | 0.00 | 0.00 | 0.00 | 84 | 1013.5 |
| 20260509075706 | 10 | 224 | 0.0 | 3.2 | 0.00 | 0.00 | 0.00 | 85 | 1013.4 |
| 20260509075203 | 9 | 217 | 1.6 | 3.2 | 0.00 | 0.00 | 0.00 | 87 | 1013.6 |
| 20260509074700 | 9 | 236 | 0.0 | 1.6 | 0.00 | 0.00 | 0.00 | 87 | 1013.2 |
| 20260509074156 | 9 | 233 | 0.0 | 0.0 | 0.00 | 0.00 | 0.00 | 88 | 1013.4 |
| 20260509073653 | 9 | 233 | 0.0 | 0.0 | 0.00 | 0.00 | 0.00 | 88 | 1013.4 |
| 20260509073149 | 9 | 233 | 0.0 | 0.0 | 0.00 | 0.00 | 0.00 | 88 | 1013.6 |
| 20260509072646 | 9 | 180 | 0.0 | 0.0 | 0.00 | 0.00 | 0.00 | 88 | 1013.5 |
| 20260509072143 | 8 | 248 | 0.0 | 0.0 | 0.00 | 0.00 | 0.00 | 88 | 1013.5 |
| 20260509071640 | 9 | 248 | 0.0 | 0.0 | 0.00 | 0.00 | 0.00 | 88 | 1013.7 |
| 20260509071137 | 9 | 248 | 0.0 | 0.0 | 0.00 | 0.00 | 0.00 | 88 | 1013.7 |
| 20260509070634 | 9 | 249 | 0.0 | 0.0 | 0.00 | 0.00 | 0.00 | 87 | 1013.8 |
| 20260509070130 | 9 | 249 | 0.0 | 0.0 | 0.00 | 0.00 | 0.00 | 86 | 1013.6 |
| 20260509065626 | 10 | 249 | 0.0 | 0.0 | 0.00 | 0.00 | 0.00 | 85 | 1013.6 |
| 20260509065123 | 10 | 249 | 0.0 | 0.0 | 0.00 | 0.00 | 0.00 | 84 | 1013.5 |
| 20260509064620 | 10 | 249 | 0.0 | 0.0 | 0.00 | 0.00 | 0.00 | 83 | 1013.6 |
| 20260509064118 | 10 | 249 | 0.0 | 0.0 | 0.00 | 0.00 | 0.00 | 82 | 1013.6 |
| 20260509063614 | 10 | 249 | 0.0 | 0.0 | 0.00 | 0.00 | 0.00 | 82 | 1013.6 |
| 20260509063111 | 10 | 249 | 0.0 | 0.0 | 0.00 | 0.00 | 0.00 | 81 | 1013.5 |
| 20260509062608 | 11 | 249 | 0.0 | 0.0 | 0.00 | 0.00 | 0.00 | 80 | 1013.5 |
| 20260509062105 | 11 | 249 | 0.0 | 0.0 | 0.00 | 0.00 | 0.00 | 79 | 1013.8 |
| 20260509061602 | 11 | 255 | 0.0 | 0.0 | 0.00 | 0.00 | 0.00 | 79 | 1013.9 |
| 20260509061059 | 11 | 310 | 0.0 | 0.0 | 0.00 | 0.00 | 0.00 | 79 | 1013.9 |
| 20260509060557 | 11 | 191 | 0.0 | 1.6 | 0.00 | 0.00 | 0.00 | 79 | 1013.9 |
| 20260509060052 | 11 | 281 | 0.0 | 0.0 | 0.00 | 0.00 | 0.00 | 79 | 1013.8 |
| 20260509055548 | 11 | 279 | 0.0 | 0.0 | 0.00 | 0.00 | 0.00 | 78 | 1013.8 |
| 20260509055044 | 11 | 266 | 0.0 | 3.2 | 0.00 | 0.00 | 0.00 | 78 | 1013.7 |
| 20260509054541 | 11 | 216 | 0.0 | 3.2 | 0.00 | 0.00 | 0.00 | 79 | 1013.7 |
| 20260509054039 | 11 | 212 | 1.6 | 1.6 | 0.00 | 0.00 | 0.00 | 79 | 1013.9 |
| 20260509053537 | 11 | 214 | 0.0 | 0.0 | 0.00 | 0.00 | 0.00 | 80 | 1014.0 |
| 20260509053034 | 11 | 246 | 0.0 | 0.0 | 0.00 | 0.00 | 0.00 | 81 | 1014.0 |
| 20260509052532 | 11 | 272 | 0.0 | 0.0 | 0.00 | 0.00 | 0.00 | 79 | 1014.1 |
| 20260509052030 | 11 | 272 | 0.0 | 0.0 | 0.00 | 0.00 | 0.00 | 79 | 1014.1 |
| 20260509051527 | 11 | 272 | 0.0 | 0.0 | 0.00 | 0.00 | 0.00 | 80 | 1014.2 |
| 20260509051024 | 11 | 272 | 0.0 | 1.6 | 0.00 | 0.00 | 0.00 | 80 | 1014.3 |
| 20260509050521 | 11 | 228 | 0.0 | 0.0 | 0.00 | 0.00 | 0.00 | 80 | 1014.4 |
| 20260509050017 | 11 | 228 | 0.0 | 0.0 | 0.00 | 0.00 | 0.00 | 80 | 1014.2 |
| 20260509045514 | 11 | 228 | 0.0 | 0.0 | 0.00 | 0.00 | 0.00 | 79 | 1014.2 |
| 20260509045011 | 11 | 228 | 0.0 | 0.0 | 0.00 | 0.00 | 0.00 | 78 | 1014.1 |
| 20260509044509 | 11 | 228 | 0.0 | 0.0 | 0.00 | 0.00 | 0.00 | 78 | 1014.2 |
| 20260509044007 | 11 | 231 | 0.0 | 0.0 | 0.00 | 0.00 | 0.00 | 79 | 1014.3 |
| 20260509043502 | 11 | 232 | 0.0 | 1.6 | 0.00 | 0.00 | 0.00 | 78 | 1014.4 |
| 20260509042957 | 11 | 236 | 0.0 | 0.0 | 0.00 | 0.00 | 0.00 | 77 | 1014.3 |
| 20260509042455 | 11 | 248 | 0.0 | 1.6 | 0.00 | 0.00 | 0.00 | 76 | 1014.3 |
| 20260509041950 | 12 | 222 | 0.0 | 1.6 | 0.00 | 0.00 | 0.00 | 75 | 1014.3 |
| 20260509041448 | 12 | 135 | 1.6 | 1.6 | 0.00 | 0.00 | 0.00 | 75 | 1014.3 |
| 20260509040946 | 12 | 180 | 3.2 | 3.2 | 0.00 | 0.00 | 0.00 | 74 | 1014.4 |
| 20260509040444 | 12 | 216 | 0.0 | 1.6 | 0.00 | 0.00 | 0.00 | 74 | 1014.5 |
| 20260509035940 | 12 | 225 | 0.0 | 0.0 | 0.00 | 0.00 | 0.00 | 72 | 1014.4 |
| 20260509035437 | 12 | 225 | 0.0 | 1.6 | 0.00 | 0.00 | 0.00 | 71 | 1014.4 |
| 20260509034933 | 12 | 233 | 0.0 | 0.0 | 0.00 | 0.00 | 0.00 | 71 | 1014.6 |
| 20260509034431 | 12 | 208 | 0.0 | 1.6 | 0.00 | 0.00 | 0.00 | 71 | 1014.5 |
| 20260509033928 | 12 | 217 | 0.0 | 1.6 | 0.00 | 0.00 | 0.00 | 72 | 1014.9 |
| 20260509033425 | 12 | 235 | 0.0 | 1.6 | 0.00 | 0.00 | 0.00 | 71 | 1014.9 |
| 20260509032922 | 12 | 233 | 0.0 | 1.6 | 0.00 | 0.00 | 0.00 | 70 | 1014.6 |
| 20260509032419 | 13 | 74 | 1.6 | 3.2 | 0.00 | 0.00 | 0.00 | 69 | 1014.5 |
| 20260509031917 | 13 | 280 | 0.0 | 1.6 | 0.00 | 0.00 | 0.00 | 68 | 1014.7 |
| 20260509031414 | 13 | 224 | 0.0 | 1.6 | 0.00 | 0.00 | 0.00 | 67 | 1014.7 |
| 20260509030912 | 13 | 209 | 0.0 | 1.6 | 0.00 | 0.00 | 0.00 | 67 | 1014.7 |
| 20260509030409 | 13 | 205 | 1.6 | 1.6 | 0.00 | 0.00 | 0.00 | 66 | 1014.6 |
| 20260509025906 | 13 | 210 | 1.6 | 4.8 | 0.00 | 0.00 | 0.00 | 65 | 1014.7 |
| 20260509025402 | 13 | 235 | 0.0 | 1.6 | 0.00 | 0.00 | 0.00 | 67 | 1014.9 |
| 20260509024857 | 12 | 236 | 1.6 | 3.2 | 0.00 | 0.00 | 0.00 | 70 | 1014.6 |
| 20260509024353 | 12 | 220 | 1.6 | 3.2 | 0.00 | 0.00 | 0.00 | 75 | 1014.8 |
| 20260509023851 | 12 | 221 | 3.2 | 3.2 | 0.00 | 0.00 | 0.00 | 75 | 1014.6 |
| 20260509023348 | 12 | 219 | 0.0 | 0.0 | 0.00 | 0.00 | 0.00 | 74 | 1014.3 |
| 20260509022844 | 12 | 220 | 0.0 | 1.6 | 0.00 | 0.00 | 0.00 | 74 | 1014.0 |
| 20260509022342 | 12 | 222 | 0.0 | 1.6 | 0.00 | 0.00 | 0.00 | 74 | 1014.2 |
| 20260509021838 | 12 | 182 | 3.2 | 3.2 | 0.00 | 0.00 | 0.00 | 74 | 1014.2 |
| 20260509021335 | 12 | 205 | 1.6 | 3.2 | 0.00 | 0.00 | 0.00 | 73 | 1014.3 |
| 20260509020833 | 12 | 223 | 0.0 | 1.6 | 0.00 | 0.00 | 0.00 | 73 | 1014.5 |
| 20260509020331 | 12 | 231 | 0.0 | 0.0 | 0.00 | 0.00 | 0.00 | 72 | 1014.4 |